Cloud_Cover
82 100 9 4 68 11 90 64 10 83 93 26 100 100 100 100 100 100 60 0 4 5 5 4 0 4 0 0 0 0 0 98 100 100 43 100 100 98 86 100 100 95 100 100
47 55 3 3 0 5 3 4 3 0 58 17 18 100 100 94 43 7 3 0 0 0 5 5 0 4 0 0 0 0 0 100 99 100 100 99 74 100 100 100 97 100 100 100
4 0 0 0 0 0 0 0 0 0 0 0 0 0 2 2 5 13 1 0 0 0 4 2 13 9 0 0 0 0 7 100 89 100 100 100 100 100 100 100 100 100 100 100
0 0 0 0 0 0 0 0 0 0 0 0 0 0 0 0 3 0 0 0 0 0 5 0 82 5 0 0 0 0 7 100 100 100 100 98 94 100 100 100 100 100 100 96
0 0 0 0 0 0 0 0 0 0 0 0 0 0 0 0 2 4 0 0 2 5 5 46 64 0 0 0 0 0 0 100 100 100 100 100 60 76 90 94 100 100 100 96
0 0 0 0 0 0 0 0 0 0 0 0 0 0 0 0 0 4 0 0 4 2 42 98 3 0 0 0 0 0 0 93 100 82 91 100 92 54 100 100 100 100 100 100
0 0 0 0 0 0 0 0 0 0 0 0 0 0 0 0 0 2 0 1 5 57 100 9 5 0 0 0 0 0 0 22 100 90 91 100 90 99 85 100 100 100 100 100
5 4 0 0 0 0 0 0 0 0 1 0 0 0 0 0 0 2 0 0 5 42 33 5 0 0 0 0 4 0 0 2 94 100 96 86 63 69 85 100 100 100 100 100
99 81 12 0 0 0 0 0 0 0 3 0 0 0 0 0 0 3 5 51 30 97 8 5 0 0 0 0 4 0 0 0 80 96 84 99 54 59 38 100 61 100 100 100
100 31 52 0 1 2 0 0 0 0 3 0 0 0 0 0 4 5 5 10 100 10 14 5 0 0 0 0 0 0 0 0 4 100 93 100 99 66 14 96 78 100 100 100
100 38 41 5 4 4 5 4 0 1 3 0 0 0 0 1 2 2 5 5 100 5 39 5 0 0 0 0 4 0 0 0 5 22 100 100 100 99 66 77 98 100 100 100
100 100 66 5 5 5 5 5 0 3 5 3 0 0 0 0 1 5 5 12 100 90 74 68 0 0 0 0 0 1 0 0 2 71 57 70 100 100 100 98 82 100 100 100
100 97 96 5 69 18 98 17 0 4 0 4 0 0 0 1 5 5 26 70 41 93 100 98 0 0 0 0 0 0 1 0 3 8 23 74 100 100 100 67 100 93 98 100
100 100 27 100 14 21 5 5 2 2 1 0 0 0 0 2 3 13 40 5 58 100 90 39 2 0 0 0 0 0 0 0 2 14 99 98 100 100 100 100 46 100 54 90
78 36 22 90 26 82 5 5 5 5 2 0 0 0 0 4 4 5 5 5 98 100 3 1 0 0 0 0 0 0 0 0 1 12 64 95 100 91 96 84 99 100 76 23
96 19 13 97 5 5 5 6 72 5 18 0 0 0 0 0 5 5 6 99 5 5 4 5 5 0 0 0 0 0 0 0 39 4 5 88 100 100 100 81 72 7 38 20
100 87 29 42 5 5 20 95 10 5 5 3 0 0 0 0 5 2 5 61 13 26 5 5 5 3 0 0 0 0 0 0 3 56 6 5 77 100 100 82 100 100 28 5
91 100 94 97 25 2 78 33 44 5 5 35 0 0 0 1 12 12 5 50 12 5 5 5 5 68 33 0 0 0 0 0 0 4 74 34 5 32 54 82 33 68 84 92
98 73 78 20 5 4 4 70 8 5 5 5 6 2 0 4 8 99 5 51 10 5 5 5 5 8 100 20 0 0 0 0 0 0 1 18 41 4 5 6 5 5 5 5
98 96 43 5 4 2 5 84 100 8 30 93 8 0 0 5 10 100 33 86 95 5 9 31 6 30 95 48 0 0 0 0 0 0 0 0 4 8 94 25 21 43 16 24
55 10 4 0 0 0 0 21 97 5 100 77 0 0 0 1 100 36 5 37 100 13 4 25 44 100 80 100 19 0 0 0 0 0 0 0 0 0 1 5 6 26 27 5
71 22 4 4 0 0 4 5 35 100 100 85 1 0 0 22 100 14 33 99 94 97 65 45 47 100 100 100 51 0 0 0 0 0 0 0 0 0 0 0 0 0 0 0
84 9 0 0 0 5 5 5 96 100 100 81 5 1 0 66 100 100 20 100 100 96 99 22 5 99 21 85 8 0 0 0 0 0 0 0 0 0 0 0 0 0 0 0
16 5 2 0 0 0 1 5 5 98 100 97 4 0 0 6 99 100 99 93 100 30 7 43 6 33 81 9 3 5 0 0 0 0 0 0 0 0 0 0 0 0 0 0
23 43 5 0 1 0 5 4 5 41 100 49 56 13 5 1 6 100 86 33 98 5 5 5 62 49 20 59 9 5 5 2 0 5 0 0 0 0 0 0 0 0 0 0
100 46 5 5 41 10 77 66 98 91 100 100 97 90 5 0 5 18 100 6 100 10 60 27 5 7 14 5 44 93 5 5 5 18 8 2 0 0 0 0 0 0 0 0